User: anonymous   Login
Location: アルンシュタイン
(50.0000°N, 10.0000°E)
Time: 23:58:36
(UTC+01:00)
Language:

Hubble Space Telescope - Orbit

View from above orbital plane
View from above orbital plane
View from above satellite
View from above satellite

Ground track
Ground track

The orbit data is extracted from the following two-line orbital elements,

1 20580U 90037B   21340.45916677  .00000900  00000-0  43267-4 0  9994
2 20580  28.4714   6.8044 0002916 114.1835 353.9629 15.09867854537012
Epoch (UTC): 06 December 2021 11:01:12
Eccentricity: 0.0002916
inclination: 28.4714°
perigee height: 534 km
apogee height: 538 km
right ascension of ascending node: 6.8044°
argument of perigee: 114.1835°
revolutions per day: 15.09867854
mean anomaly at epoch: 353.9629°
orbit number at epoch: 53701

The dashed part of the orbit path shows where the satellite is in the earth's shadow,  

DLR